STARLINK-34568, 64717

Orbit data source: Space-Track

STARLINK-34568, 64717 is a payload satellite owned by SpaceX/Seattle (US) in LEO that was launched on Sat, 28 Jun 2025 UTC via an FALCON 9 launch vehicle from the Air Force Western Test Range (AFWTR). Payload-class satellites include a variety of spacecraft equipped with specific instruments for various scientific and technological missions. These include communications satellites like Starlink; space stations such as the ISS; scientific satellites like the Hubble; Earth observation satellites from companies like Planet Labs, Umbra, and HawkEye 360; GPS; miniature CubeSats for education and research; and military/defense satellites.

Not visible in the next 10 days
Identifier
64717, 2025-142X
Orbit
LEO
Last TLE update
8 hours ago
Origin
Manufacturer
SpaceX/Seattle
Mission
Operational spacecraft
Bus & Motor
STARLINK V2MO, Unknown motor
Mass
575 kg wet, ~530 kg dry
Launch date (UTC)
2025-06-28 (1 week ago)
Launch vehicle
FALCON 9
Launch site
Air Force Western Test Range (AFWTR)
Object type
Payload
Rocket body
Debris
Shape & HBR
Unknown
Radar Cross Section
RCS unknown

Expand to show TLE details & history

TLE from 8 hours ago
0 STARLINK-34568
1 64717U 25142X   25186.58335648 -.01438070  57487-3 -50204-2 0  9995
2 64717  69.9947 231.3007 0003831 278.2830  78.0974 15.89159604  2131
Epoch: 2025-07-05T14:00Z
TLE epoch observation values (Epoch: 2025-07-05T14:00:01.999Z)
Latitude
-3.49637°
Longitude
96.20563°
Altitude
307.151 km
Speed
7.724 km/s
True Right ascension
15h 20m 07s
True Declination
-3° 28' 27"
Sunlit
Object was in full shadow at epoch
Visualization orbit readout
Latitude
-34.80744°
Longitude
-68.97119°
Altitude
318.944 km
Speed
7.716 km/s
Apparent Right ascension
01h 35m 18s
Apparent Declination
-46° 32' 36"
Sunlit
Object is in daylight
Visualization observer readout
Local Sidereal Time
10:25:11
Azimuth
242.977° WSW
Elevation
-55.283°
Doppler factor
1
Orbital elements
Apogee altitude
305.064 km
Perigee altitude
299.945 km
Semi-major axis
6,680.641 km
Eccentricity
0.00038
Inclination
69.9947°
RAAN
231.3007°
Arg. of periapsis
278.283°
True anomaly
Unknown
Mean anomaly
78.0974°
Eccentric anomaly
Unknown
Mean motion
3.97481 °/min
Orbital period
90.57 mins
BSTAR
-0.0050204
Loading maneuver chart data...
Loading SW <> Apogee altitude chart data...
Loading historical data...
Loading historical data...
Loading historical data...
Loading historical data...
Loading historical data...
Loading historical data...
Loading historical data...

STARLINK-34568 Visibility

Observer location: undefined°, undefined°

STARLINK-34568 is likely not visible in the next few days
Span
Click to sort rows by Start time (UTC) header in descending order
Start Az.
Max El. time (UTC)
Max El. Az.
Max El.
End time (UTC)
End Az.
|